Wind_Speed
10 9 9 10 9 8 7 7 6 6 5 5 6 7 8 10 12 14 16 17 19 21 22 22 22 21 20 19 18 16 14 13 13 13 13 13 13 14 14 14 13 11 8 7 7 8 8 7 6 5 5 5 5 5 5 5 5 5 5 5 5 5 5 5 5 5 4 3 3 3 3 3 3 2 2 2 2 2 3 3 4 4 5 5 6
11 11 10 10 9 9 8 7 7 6 6 6 7 8 9 11 13 15 16 17 19 21 21 21 21 21 20 19 18 17 14 13 12 12 12 13 13 14 14 14 13 12 10 8 7 7 8 8 7 6 6 5 6 6 5 5 5 5 5 5 5 5 5 5 5 4 4 3 3 3 3 3 3 3 3 4 4 4 5 5 5 6 6 7 7
11 12 11 10 10 9 8 8 7 7 7 7 8 9 10 12 13 15 17 18 19 20 20 20 21 21 21 20 19 18 15 13 12 12 12 12 13 14 14 14 13 13 12 10 8 7 7 8 8 7 7 7 7 7 7 7 7 7 7 7 7 6 6 5 5 5 5 4 4 4 4 5 5 5 6 6 7 7 7 7 7 8 8 8 8
11 12 11 11 10 10 9 9 8 8 8 9 10 11 11 13 14 16 18 19 19 19 20 20 21 22 22 21 20 19 16 14 12 12 12 12 13 13 14 13 13 12 11 11 10 8 7 7 8 8 8 8 8 9 9 10 10 10 9 9 9 8 8 7 6 6 6 6 5 6 6 7 7 7 8 8 8 8 8 9 9 9 9 9 9
10 11 12 11 11 11 10 10 9 9 9 10 10 11 12 13 15 17 18 19 19 20 20 20 21 22 22 22 21 20 17 14 13 12 12 12 12 13 13 13 13 12 11 10 10 9 8 7 8 8 9 9 9 10 10 11 11 11 11 11 10 10 10 9 8 7 7 7 7 7 8 7 7 8 9 9 9 9 9 9 9 9 9 9 9
11 11 12 12 11 10 9 9 9 9 10 10 11 12 13 14 16 17 19 20 20 20 21 21 22 22 23 22 21 20 18 16 13 12 12 12 12 13 13 13 13 11 10 10 10 9 8 8 8 8 9 10 10 10 11 11 12 12 11 11 11 10 10 10 9 9 8 8 8 8 7 7 7 7 8 9 9 8 8 8 8 9 9 9 9
11 12 13 12 11 10 8 8 8 9 10 11 11 12 13 14 16 18 19 20 21 21 22 22 22 22 22 21 21 20 19 17 14 13 12 12 12 13 13 13 13 12 10 10 9 9 9 8 8 8 9 9 10 11 11 12 12 11 11 10 9 9 9 9 8 8 9 8 8 7 7 7 6 7 8 8 8 8 8 8 8 8 9 9 9
11 12 12 11 10 9 7 6 7 9 10 11 12 12 13 14 16 18 19 20 21 21 22 22 23 22 22 21 20 20 20 18 15 13 12 12 12 12 13 13 13 12 10 10 9 9 9 9 9 9 9 9 9 10 11 11 11 10 9 8 7 8 8 9 7 7 7 6 6 7 6 6 7 8 8 8 7 7 7 7 8 8 8 9 9
13 12 11 9 8 6 4 4 5 7 9 11 12 13 13 14 16 18 19 20 21 21 22 23 23 23 22 21 20 20 20 19 17 14 13 12 12 12 13 13 13 12 11 10 9 9 9 10 9 9 10 9 9 9 10 10 9 9 8 8 7 7 8 9 9 7 7 7 6 6 6 7 8 7 6 6 6 7 7 7 8 8 9 9 10
12 12 10 9 7 5 3 1 3 6 8 10 11 13 13 14 16 18 19 20 21 21 21 22 23 23 23 22 21 20 19 19 18 15 13 12 12 12 12 13 13 12 11 10 10 9 10 10 10 10 10 10 10 10 10 9 9 8 7 7 7 7 7 8 8 8 7 7 7 6 8 8 7 6 5 6 7 7 7 8 8 8 9 9 9
10 10 10 9 7 6 4 3 3 5 7 9 10 11 12 13 15 17 19 20 21 21 21 22 23 23 23 22 21 20 19 19 18 17 14 13 12 12 12 13 13 13 12 11 10 10 10 10 10 10 10 10 10 10 9 9 8 7 7 6 6 6 6 7 7 7 7 8 7 6 7 6 6 6 6 7 7 7 7 7 8 8 8 8 9
11 10 9 9 8 7 6 5 5 6 8 10 10 10 11 12 14 16 18 20 20 21 21 21 22 23 23 22 21 21 20 19 18 18 16 13 12 12 12 13 13 13 12 12 11 11 10 10 10 10 10 10 10 10 9 8 8 7 7 6 6 7 7 6 6 6 7 7 7 6 5 4 6 6 7 7 7 7 7 8 8 9 10 10 11
12 10 9 8 8 7 7 7 7 8 10 11 10 10 11 12 13 15 17 19 20 20 21 21 22 22 23 22 21 20 21 20 19 18 17 15 13 12 12 12 13 13 13 12 12 11 10 10 10 10 9 9 9 9 9 9 8 8 8 7 7 8 7 7 6 6 6 6 6 6 4 4 5 6 6 6 7 8 8 9 10 10 11 11 11
10 10 10 8 9 8 8 9 10 11 11 11 11 10 11 12 13 14 16 18 19 20 21 21 22 22 23 22 20 19 20 20 20 18 17 15 14 13 12 12 12 12 12 12 12 11 11 11 11 10 10 9 9 9 9 9 9 9 8 8 7 7 6 6 6 6 7 6 5 5 4 4 5 5 5 6 7 8 9 9 10 10 11 11 11
13 14 14 12 12 10 10 11 12 12 12 12 11 11 12 12 13 14 15 17 18 19 20 21 22 22 22 22 20 19 18 20 20 18 16 15 14 13 12 12 11 12 12 12 12 11 11 11 12 11 11 10 10 9 9 9 9 9 8 7 6 5 5 6 6 6 6 6 5 5 4 5 5 5 6 7 8 8 9 10 10 11 11 11 11
16 16 15 15 14 11 10 12 13 13 13 13 12 12 12 12 13 13 14 16 17 18 19 21 22 23 23 23 21 19 18 19 20 19 16 14 14 13 12 12 11 11 12 12 12 12 11 11 12 12 11 10 9 9 9 9 9 9 8 7 6 5 5 6 7 6 6 6 5 4 5 5 6 6 7 9 9 10 10 11 11 12 12 13 13
17 15 13 12 12 11 11 12 13 13 14 14 14 14 13 13 13 13 14 15 16 17 19 21 22 23 23 23 21 19 18 18 19 19 16 13 14 13 12 12 11 10 11 12 12 12 12 11 11 11 12 10 8 8 8 8 9 9 8 7 7 6 6 6 7 7 7 6 5 5 6 6 7 8 9 10 10 11 11 12 13 13 14 15 15
17 15 13 12 12 12 14 14 14 14 14 15 15 15 14 13 13 13 13 14 16 17 18 20 22 23 24 23 22 19 17 18 18 17 15 13 13 13 13 12 11 10 10 11 12 12 12 12 11 11 12 11 9 8 8 7 8 8 8 7 7 7 7 7 6 7 7 7 7 6 7 7 8 9 10 11 11 12 12 13 14 14 15 16 16
19 17 15 15 15 16 17 17 15 14 14 15 15 14 13 12 12 13 13 14 15 16 18 20 22 23 24 24 22 19 17 17 17 15 14 13 13 13 13 12 11 10 10 11 12 12 12 12 12 11 11 11 9 8 7 7 7 7 7 7 7 7 7 6 6 6 6 7 7 7 7 8 9 9 10 11 11 12 13 14 14 15 16 17 18
18 20 19 19 19 20 21 20 17 15 15 15 14 13 11 11 12 12 13 14 15 16 18 19 22 23 24 24 22 19 17 17 15 13 13 14 13 13 13 13 11 11 11 12 12 12 12 13 13 12 11 11 10 7 7 7 7 7 7 7 7 8 7 6 6 5 6 7 6 7 7 8 8 9 10 11 11 12 13 14 15 16 17 18 19
20 22 22 22 22 23 23 22 19 16 16 15 14 12 10 11 11 12 13 14 15 17 18 20 21 23 24 25 22 19 17 16 14 12 13 14 14 13 13 13 12 11 12 12 13 13 12 13 13 13 11 11 10 8 6 7 7 7 7 7 8 9 9 7 6 5 6 6 6 7 8 8 9 9 10 11 12 13 13 15 16 17 18 19 20
20 21 22 23 23 22 22 21 18 16 16 15 13 11 10 10 11 13 13 14 15 17 19 20 21 22 24 25 22 20 18 16 13 12 13 14 14 14 14 14 13 12 12 13 13 13 13 13 14 14 12 11 10 9 7 7 7 7 7 8 8 10 10 9 8 7 6 6 6 7 8 8 9 9 10 11 12 13 14 16 17 18 19 20 20
15 15 17 19 19 17 16 17 17 16 16 15 13 11 10 10 12 12 13 14 16 18 19 21 22 22 24 24 22 20 18 16 14 12 12 13 14 14 14 14 14 13 12 13 13 13 13 13 13 14 13 11 9 9 9 8 8 8 8 9 9 10 10 9 9 9 8 7 8 8 8 9 9 10 10 11 12 14 15 16 18 19 20 21 21
13 12 14 16 15 13 13 16 17 17 17 15 13 11 10 11 12 12 14 15 17 19 20 22 22 22 24 24 22 20 19 17 15 14 13 13 14 15 15 15 14 14 13 13 13 13 13 13 13 14 13 10 8 9 10 10 10 10 10 10 10 11 11 10 10 10 9 8 8 8 8 9 9 10 11 12 13 14 16 17 18 20 21 22 22
15 13 13 14 13 12 13 16 17 17 16 14 12 10 10 11 12 13 15 16 18 20 21 22 23 23 24 24 22 20 19 18 17 16 15 14 14 15 15 16 15 15 15 14 13 13 13 13 13 13 13 11 9 10 10 10 10 11 11 11 11 12 11 11 11 11 10 9 9 8 8 9 9 10 11 12 13 15 16 18 19 20 21 22 23
16 14 13 13 13 13 14 15 16 16 15 13 11 10 10 11 12 14 16 18 19 22 23 23 24 24 24 24 23 21 20 19 18 18 17 16 16 16 17 18 17 17 17 16 14 14 13 13 12 13 13 12 12 12 11 10 10 10 11 12 12 12 11 11 11 12 11 10 10 9 9 9 10 10 11 12 14 15 17 18 20 21 22 23 23
15 12 12 12 13 14 15 16 16 15 14 12 11 10 11 12 13 15 17 19 21 24 25 24 25 25 24 24 23 22 21 20 18 18 18 17 17 18 19 20 21 21 20 19 17 15 14 13 12 13 13 13 13 12 11 11 12 12 12 12 12 13 12 12 12 12 11 11 10 10 10 10 10 11 12 13 14 16 17 19 20 22 23 24 24
15 12 11 11 13 16 18 17 16 14 13 11 11 12 13 14 16 18 19 21 24 26 26 26 26 26 25 24 23 23 22 21 19 18 17 17 17 18 20 20 21 21 22 22 20 18 17 14 12 12 12 12 12 12 11 10 11 13 13 13 13 13 13 12 12 12 12 11 11 11 11 11 11 11 12 13 15 16 18 19 21 23 24 24 24
16 15 12 11 12 16 18 17 15 14 13 12 13 14 16 17 18 20 22 24 26 28 27 28 28 27 25 24 24 23 23 22 21 18 16 16 16 16 18 19 19 21 21 20 19 19 18 14 12 11 11 11 11 11 10 10 11 12 13 13 13 14 13 13 13 12 12 12 12 12 12 12 11 11 12 14 15 17 18 20 22 24 24 23 23
15 15 13 12 13 15 16 16 15 15 15 15 16 18 19 21 22 23 24 26 29 29 28 29 29 28 26 24 24 24 24 23 21 19 15 13 15 16 17 19 21 23 21 18 17 15 13 12 12 11 11 11 10 10 10 10 11 12 12 13 14 14 14 13 13 13 12 12 13 13 12 12 12 12 12 14 16 17 19 22 23 24 23 22 22
15 12 13 13 12 13 15 16 17 17 19 19 20 22 23 24 25 26 26 28 30 29 29 29 29 29 27 25 24 24 24 22 20 16 12 12 15 17 17 19 21 22 19 17 13 10 9 11 13 13 12 11 10 10 11 10 11 13 13 14 14 14 14 13 13 13 12 12 13 13 13 13 13 13 13 14 16 18 21 23 23 23 23 22 21
18 14 15 14 12 15 18 19 20 21 22 22 23 26 26 27 27 27 28 30 30 29 29 29 29 28 27 26 26 25 22 19 16 13 12 13 15 17 18 17 18 18 14 14 14 12 11 11 13 14 13 12 11 11 11 11 12 14 14 14 14 14 13 12 12 13 12 12 13 13 13 13 14 14 14 15 17 20 22 23 23 23 22 21 21
22 17 17 15 17 21 23 22 22 24 25 25 26 28 28 28 29 28 29 30 29 29 29 28 28 27 27 27 25 22 18 15 14 13 13 14 15 17 18 17 17 15 11 12 14 16 16 14 13 14 13 12 12 11 11 12 13 14 15 14 13 13 13 12 11 12 13 12 13 13 13 14 14 15 15 16 19 21 23 23 23 22 21 21 20
23 21 20 20 24 25 24 25 24 26 27 27 28 29 29 29 29 29 30 30 29 28 28 27 27 27 27 26 23 19 15 15 14 14 13 13 15 17 17 17 17 15 13 13 13 15 18 16 14 15 14 12 12 12 12 13 14 14 14 14 13 13 13 12 11 12 13 13 13 14 14 14 15 16 17 18 20 22 23 23 22 21 20 19 18
27 26 26 26 26 26 27 27 27 28 29 29 30 30 29 29 29 29 30 30 28 27 27 26 26 27 27 24 20 18 15 14 13 12 12 12 14 15 15 15 16 14 14 14 13 13 15 16 15 15 13 11 12 13 13 14 14 13 14 13 13 13 13 12 11 11 11 12 13 14 14 14 15 16 18 19 21 23 23 23 22 20 19 17 17
33 31 30 28 27 27 28 29 29 29 29 30 31 30 30 29 28 29 30 29 27 25 25 25 26 26 25 22 20 18 16 14 13 12 12 13 13 13 13 13 14 14 14 14 14 14 14 14 14 14 13 12 12 14 14 14 14 14 13 12 12 13 13 13 12 11 11 11 12 13 14 14 14 16 18 20 22 23 22 22 21 19 17 16 17
36 33 30 29 29 28 29 30 30 29 29 30 31 31 30 28 28 29 30 29 26 24 24 25 25 25 23 20 19 17 16 15 14 13 13 13 14 14 12 12 13 13 13 14 15 14 13 14 15 15 12 12 14 15 14 14 14 14 13 12 12 12 13 13 13 12 12 12 12 13 13 14 15 17 19 21 22 22 22 21 20 18 17 17 18
36 32 29 31 33 31 31 32 31 30 30 31 32 31 29 28 28 30 30 28 25 24 24 24 24 22 20 18 17 17 16 15 14 13 13 14 14 14 13 12 13 13 13 14 15 15 15 16 18 16 12 12 14 15 15 14 15 14 13 13 13 12 13 13 13 13 13 13 12 12 13 14 16 18 20 21 21 21 20 19 18 17 18 19 20
37 31 31 34 35 33 32 32 31 30 30 31 31 30 29 28 29 31 30 28 25 25 24 23 21 19 17 17 17 17 16 15 14 13 13 14 14 14 13 12 12 12 12 13 14 15 15 15 17 15 12 12 13 15 15 15 15 15 13 14 14 14 14 13 13 14 13 13 13 13 14 15 17 19 20 20 20 20 18 17 16 17 18 20 21
41 34 32 34 34 32 31 30 29 28 29 31 31 29 29 29 30 31 31 28 26 25 23 21 18 17 16 16 17 16 16 15 14 14 14 14 15 14 13 12 13 13 13 13 12 12 13 14 13 12 12 13 13 14 15 15 15 15 14 14 14 14 14 14 14 13 13 13 13 14 15 17 19 20 20 20 20 19 17 16 16 17 18 20 22
44 35 31 33 32 29 28 28 29 28 29 30 30 29 29 30 31 32 31 28 26 25 22 19 17 16 16 16 16 16 15 15 15 15 15 14 15 15 13 13 14 14 14 14 13 12 13 15 14 13 14 14 14 13 13 14 15 15 14 15 15 15 15 14 13 13 13 13 14 16 17 19 20 21 20 20 19 18 17 16 17 17 19 21 23
42 34 30 30 28 27 26 28 28 27 29 30 29 29 30 31 32 32 31 28 26 24 21 18 16 16 16 16 16 15 15 16 17 17 16 15 15 15 14 14 14 14 15 15 13 12 13 14 15 15 15 14 14 13 12 13 14 14 14 15 16 15 15 14 13 13 13 14 16 17 19 20 20 20 20 20 19 17 17 17 17 18 20 22 23
38 33 29 27 25 24 24 27 27 27 29 29 29 30 31 32 33 32 30 27 25 22 19 18 16 16 16 16 15 15 16 17 18 17 17 16 15 15 15 15 15 15 15 14 13 12 13 13 14 14 15 14 14 13 12 13 15 15 15 16 16 15 14 13 13 13 14 16 17 19 20 20 20 20 20 19 18 17 17 17 18 19 21 22 23
35 32 28 24 23 22 23 26 27 27 28 29 29 30 31 32 32 30 28 26 23 20 18 17 16 16 16 16 16 16 17 18 18 18 18 17 15 15 15 16 17 17 16 14 13 13 13 14 14 15 15 14 13 13 13 13 15 16 16 17 16 14 13 13 14 14 15 17 18 20 20 20 20 20 19 18 18 17 17 18 19 20 21 22 24
35 32 26 23 23 24 25 27 27 26 28 29 30 30 31 32 31 28 26 24 20 18 17 16 16 16 16 17 17 17 18 19 20 20 19 18 16 15 16 17 17 17 16 14 14 14 14 15 16 16 16 15 13 13 14 14 15 16 17 17 15 14 14 14 14 15 16 18 19 20 20 19 19 19 18 17 17 17 18 18 19 20 21 23 25
33 30 26 24 25 27 28 27 27 27 29 29 29 29 30 30 29 27 24 21 18 17 16 15 15 16 16 17 17 18 20 20 21 21 20 18 16 16 16 17 17 17 16 15 15 15 15 17 17 17 16 15 13 13 14 16 16 16 17 17 16 15 14 15 15 16 18 20 20 20 19 19 19 18 18 17 17 18 18 19 19 20 21 24 26
30 28 26 26 27 29 29 27 27 28 28 27 28 29 29 29 27 24 21 19 17 16 15 15 15 16 17 17 18 19 20 21 21 20 19 17 17 16 16 16 17 17 16 14 14 14 15 17 18 17 15 14 14 13 14 15 15 15 16 17 16 16 15 16 17 17 19 20 19 19 19 19 18 18 17 17 18 18 18 19 19 20 23 25 26
27 26 25 26 29 31 29 27 27 27 26 26 28 28 28 27 25 22 19 18 16 16 17 17 17 17 18 18 19 20 21 22 21 19 18 17 17 17 16 16 17 17 16 16 14 14 15 16 17 17 16 15 15 14 13 14 14 14 16 17 17 16 16 17 19 19 20 19 18 18 18 18 18 17 18 19 19 18 19 19 20 22 24 25 25
24 23 24 27 30 31 29 27 26 26 25 26 27 27 26 25 22 20 19 17 17 17 18 18 18 19 19 19 19 20 21 21 20 18 17 17 18 18 16 16 17 17 17 17 16 15 15 17 18 17 16 16 15 14 13 13 13 14 16 18 17 17 17 19 20 20 20 18 17 17 17 17 17 17 18 19 19 19 20 20 22 23 24 24 25
22 22 25 28 31 31 28 26 26 25 25 26 26 25 24 22 21 20 19 18 18 19 19 19 19 19 19 19 19 20 20 19 18 17 17 17 17 17 16 16 17 17 18 18 19 18 17 18 18 16 15 15 15 14 13 12 13 16 17 18 17 18 19 20 20 19 19 18 17 16 16 17 17 16 17 19 20 20 21 21 23 23 23 24 24
22 23 25 27 29 30 27 26 26 26 25 25 25 24 23 22 20 19 18 18 19 20 20 20 19 19 19 19 20 20 19 18 17 17 17 17 16 16 16 17 17 18 18 18 19 20 19 18 17 15 15 16 16 14 13 14 16 17 18 17 17 18 19 19 18 18 17 17 16 16 16 17 17 17 18 19 20 21 21 22 23 23 23 24 24
Wind_Direction
149 139 135 131 127 124 120 115 106 94 78 57 37 19 8 1 359 358 357 357 358 359 357 354 353 355 358 360 0 359 356 353 351 353 357 2 4 2 2 2 4 4 6 10 10 4 359 359 360 3 5 12 17 20 23 26 31 35 39 39 39 40 43 46 53 60 64 66 67 68 66 63 57 49 47 36 21 11 3 356 351 346 344 342 341
149 138 137 132 127 125 120 114 103 93 77 58 41 25 13 5 2 0 359 1 3 2 360 358 358 359 0 3 4 2 359 356 353 353 356 2 4 3 1 1 3 5 6 7 8 5 360 358 354 352 351 351 352 354 357 358 360 1 5 6 9 11 16 23 28 33 39 43 40 45 44 43 36 26 30 23 15 13 8 3 360 356 352 348 344
149 139 136 133 128 126 121 114 101 91 75 60 45 31 20 11 4 3 1 3 6 5 4 3 3 2 4 6 6 4 1 358 354 353 356 1 4 3 2 1 2 4 7 8 6 360 354 351 349 345 341 339 336 334 333 334 336 337 340 341 342 343 347 351 356 360 6 11 14 19 20 24 18 12 20 15 10 9 7 4 3 359 355 351 347
146 140 135 134 130 129 122 113 98 86 72 59 46 32 22 13 6 3 3 4 6 7 7 6 6 6 7 9 8 7 3 359 355 354 356 1 4 3 2 1 1 2 6 10 8 360 349 341 339 335 331 328 325 324 325 326 327 328 329 329 328 327 325 324 328 335 343 349 353 359 7 12 5 7 18 12 6 7 6 4 2 359 355 351 347
145 145 142 140 135 130 120 109 93 80 66 54 42 30 19 10 6 2 2 4 6 8 8 7 8 9 9 10 10 8 5 360 355 353 356 1 3 3 2 1 360 0 3 9 11 5 354 340 331 325 322 321 321 322 323 324 323 323 323 322 321 318 315 315 318 319 325 330 336 349 355 356 350 0 14 6 360 3 4 2 359 356 352 348 345
149 151 147 144 138 130 118 104 86 73 59 49 38 26 17 7 3 1 1 3 5 8 9 9 9 9 10 10 10 10 7 1 355 351 353 359 2 2 2 0 359 358 360 5 9 7 2 351 338 327 323 321 322 324 325 323 322 323 322 320 318 315 314 315 321 319 321 326 330 337 336 332 338 353 4 356 350 353 354 354 350 347 343 340 337
151 155 152 148 142 135 121 104 80 64 51 42 33 23 14 5 0 359 358 1 4 6 8 10 8 8 10 11 11 11 9 3 357 351 350 357 1 0 360 358 357 356 357 1 5 7 4 360 351 340 332 327 325 324 324 324 325 329 330 330 328 326 323 325 332 326 323 325 326 325 321 325 339 353 354 343 339 342 342 342 342 340 338 336 334
154 158 157 152 148 141 128 104 73 55 44 35 28 21 12 3 357 357 356 358 2 4 7 9 8 7 9 10 12 12 10 5 359 352 349 353 357 357 357 356 355 354 354 357 2 4 3 3 360 353 346 337 330 327 327 331 338 347 354 359 357 353 343 340 348 342 330 332 334 329 330 345 356 357 345 335 339 343 344 346 348 350 349 349 348
158 164 164 160 161 154 143 107 62 43 35 29 23 17 10 1 355 354 353 355 359 3 6 7 7 6 7 8 11 12 11 7 1 354 348 350 353 354 354 354 353 352 353 356 358 1 1 1 1 360 357 352 346 341 343 350 1 11 19 22 17 10 357 348 356 358 348 355 356 348 1 13 10 1 349 349 1 2 1 3 3 4 4 3 2
160 169 174 177 184 188 188 168 26 23 21 20 18 12 6 360 353 350 349 351 355 1 6 7 5 4 5 6 8 11 11 8 3 355 349 347 348 350 351 351 351 351 351 354 357 358 358 358 359 1 1 360 359 357 0 8 16 22 27 26 18 14 8 1 5 2 1 13 5 9 28 27 20 15 13 18 20 16 11 10 8 7 5 5 3
163 174 184 196 208 224 237 261 307 351 4 7 10 6 2 359 352 346 344 345 350 358 4 5 4 2 3 4 5 7 10 9 5 356 348 344 343 346 348 348 349 349 350 353 356 357 356 355 357 360 2 1 1 2 5 12 16 21 24 21 16 17 16 14 20 5 4 17 6 22 42 28 24 22 20 24 21 15 11 9 7 4 3 1 360
170 179 188 204 217 231 246 263 286 324 346 356 360 359 358 356 350 342 339 340 346 354 1 4 2 360 360 1 2 4 7 8 6 358 349 342 339 341 343 345 346 348 349 352 354 355 354 352 355 358 0 360 359 360 2 6 9 15 20 17 14 18 17 14 22 7 6 15 5 22 44 24 22 20 17 18 13 9 10 11 9 8 8 7 6
176 186 191 202 222 236 247 267 285 308 329 341 347 351 354 352 346 339 336 336 343 350 357 1 0 358 357 358 359 0 4 6 6 0 351 341 335 335 338 341 343 346 347 349 351 353 353 351 352 355 357 357 355 355 355 358 2 9 16 19 19 21 19 11 12 9 10 15 6 15 32 25 23 21 18 12 10 13 17 19 18 18 17 16 14
198 213 218 218 230 244 256 272 286 299 313 324 333 340 344 345 341 337 333 334 341 348 353 357 357 356 353 354 356 356 359 0 1 359 352 343 333 329 331 335 339 343 344 345 346 349 352 352 351 351 352 354 352 351 351 352 354 1 9 17 22 26 18 5 8 9 9 9 4 9 20 27 29 29 27 25 27 29 31 30 26 24 21 19 15
235 245 252 251 243 247 264 276 286 294 302 312 323 329 333 337 336 333 331 331 339 346 350 353 354 353 351 350 352 352 353 354 355 355 351 343 334 326 325 329 333 339 340 339 341 344 350 354 354 351 348 348 348 345 343 343 346 351 358 6 15 22 12 1 12 13 5 4 5 8 22 35 39 42 43 42 41 38 34 30 26 22 17 14 10
248 251 255 255 252 250 266 281 288 291 296 305 314 320 325 328 329 329 328 330 337 344 348 350 350 350 348 346 348 349 348 349 349 348 347 343 335 326 321 324 328 333 335 333 336 342 348 353 355 353 348 344 343 341 335 332 336 341 348 357 4 11 13 10 14 14 7 6 11 20 32 42 47 45 44 41 37 32 27 24 20 15 11 7 3
252 252 252 250 253 256 271 285 289 290 295 301 306 310 316 321 322 323 326 328 335 341 345 347 346 346 344 342 344 345 346 346 346 344 342 341 337 329 320 319 322 326 327 327 331 339 345 350 353 353 352 347 340 337 332 327 328 334 340 353 0 0 14 21 15 14 15 13 17 28 34 39 41 36 35 31 25 21 18 16 12 9 5 1 358
260 259 257 256 259 266 279 287 289 289 293 299 302 304 307 313 316 319 322 326 333 337 341 344 342 342 341 339 341 342 344 345 345 343 340 338 338 334 324 316 314 316 316 318 324 333 339 343 346 348 351 352 345 336 333 328 326 330 337 350 357 353 8 25 22 21 20 18 19 22 27 32 32 29 26 21 16 12 10 8 6 3 360 357 354
265 265 263 264 268 276 283 287 290 289 291 296 299 303 304 305 310 315 319 325 329 333 337 339 339 339 337 336 338 340 342 344 344 343 339 338 339 336 330 319 309 307 306 308 315 324 330 336 342 345 347 351 350 339 333 329 327 331 335 347 350 346 0 17 25 26 21 20 16 14 21 26 24 21 17 12 9 6 3 2 360 358 355 353 350
260 266 267 270 274 280 283 284 288 287 288 292 297 303 302 302 307 311 317 322 325 328 333 334 335 336 334 334 336 336 339 341 343 342 339 338 340 338 333 324 310 300 297 299 305 314 323 329 336 343 346 349 352 348 337 331 331 335 335 343 343 339 350 2 13 23 20 20 12 9 17 19 15 11 7 4 1 359 357 356 355 354 351 350 347
252 259 265 271 274 278 278 279 281 280 282 287 292 299 300 301 305 309 315 319 321 324 327 328 331 333 331 331 333 333 335 337 338 338 336 336 338 338 334 328 317 301 292 292 296 304 315 322 329 338 347 349 350 355 347 338 337 337 335 339 336 333 342 349 354 7 13 13 6 6 11 9 6 1 358 357 356 354 352 352 351 350 347 345 342
247 250 259 268 272 275 275 273 273 273 277 283 289 295 297 300 303 307 313 315 317 319 320 323 327 331 329 328 330 329 329 332 333 332 332 332 335 337 334 330 323 307 293 289 292 298 307 316 324 331 342 348 349 356 354 346 339 335 334 332 327 329 338 341 341 350 358 359 357 2 2 358 356 352 351 351 350 349 350 349 348 346 343 340 337
242 245 254 266 272 273 269 265 264 268 274 279 285 290 294 297 300 305 309 310 312 313 315 318 323 328 326 324 326 324 324 326 326 325 327 328 332 335 334 331 325 315 300 291 291 295 301 310 317 323 332 342 350 360 359 354 347 339 335 327 323 326 332 334 334 337 340 344 349 352 350 349 346 343 345 346 345 346 346 345 344 342 340 337 335
239 245 256 265 270 267 258 256 259 264 269 273 280 286 290 293 297 302 304 305 307 309 311 314 319 324 322 320 321 320 319 321 321 319 320 324 328 332 332 330 324 319 308 296 291 292 295 302 309 314 323 334 346 354 354 355 354 344 334 328 327 326 326 328 326 324 327 333 337 338 338 338 336 337 340 341 342 343 343 342 341 339 336 335 334
238 244 254 261 265 263 255 254 256 260 266 270 277 283 286 289 294 299 300 301 303 305 307 310 315 319 318 317 317 317 316 317 318 316 316 319 323 327 328 327 324 321 313 301 291 287 287 293 300 305 313 320 326 335 342 350 350 339 331 333 332 324 321 322 319 318 322 325 326 326 326 326 329 333 335 337 339 339 339 339 337 335 334 334 333
240 245 250 257 263 264 259 255 256 259 263 270 277 281 282 287 293 295 297 299 301 302 303 308 312 314 315 314 313 313 313 314 314 313 314 317 320 324 326 326 327 324 316 305 293 285 283 286 292 298 304 308 313 322 335 344 338 329 331 336 333 323 317 316 315 316 319 318 318 317 315 318 325 330 332 334 335 336 337 336 334 333 333 333 333
244 249 248 254 262 265 263 258 257 259 264 273 279 282 283 287 291 293 295 297 299 299 301 306 309 310 312 311 309 310 311 312 310 309 311 315 318 322 326 329 332 330 321 313 301 287 281 280 284 292 299 305 311 318 331 338 330 326 333 336 332 324 317 314 312 312 311 310 308 307 308 313 322 327 329 329 330 333 334 333 331 332 333 334 333
248 249 249 250 257 261 262 261 261 265 272 281 285 285 285 287 290 292 294 297 297 297 300 305 307 308 310 308 307 308 310 310 308 307 307 309 315 322 326 329 332 329 321 315 307 294 282 278 280 287 297 302 309 316 324 329 323 324 330 331 327 321 316 311 306 305 304 303 301 301 305 311 320 323 324 325 327 330 331 331 331 331 332 332 332
250 242 243 243 249 255 259 265 268 274 283 290 290 287 286 287 290 292 294 296 295 296 301 304 304 306 306 305 304 306 308 309 307 306 304 305 312 317 318 320 323 321 313 306 302 293 281 276 279 283 290 295 306 316 315 316 317 320 324 324 322 315 313 309 303 301 299 299 298 299 303 309 315 318 320 322 323 327 329 329 330 330 331 331 331
250 235 231 232 238 248 259 270 277 284 290 292 291 287 286 288 291 292 294 294 294 297 301 302 303 304 304 303 303 304 306 307 306 307 305 301 301 305 309 315 321 321 313 301 291 284 279 280 284 284 288 294 306 311 304 309 314 314 315 315 314 312 313 311 305 301 298 297 296 298 303 306 310 313 317 319 321 325 327 327 328 329 330 331 331
249 227 217 219 228 250 268 277 282 286 289 289 288 285 285 288 290 291 292 292 293 296 299 300 302 303 303 304 304 305 306 307 306 304 299 292 295 301 308 314 321 322 315 304 285 259 262 280 287 288 291 297 302 297 296 308 310 308 310 309 312 316 317 314 307 302 300 298 296 299 302 303 307 312 315 316 319 323 326 327 329 330 331 332 332
248 228 209 213 236 265 275 277 279 282 286 286 283 282 284 287 288 289 290 290 292 295 297 298 300 301 303 305 307 309 310 306 299 293 287 287 292 297 303 307 313 316 309 302 287 266 267 274 282 286 288 295 295 290 296 306 306 306 309 311 316 321 320 316 309 303 300 298 296 297 299 301 305 309 312 315 318 322 326 328 329 330 331 331 332
249 233 215 229 259 273 276 275 276 281 285 285 282 282 284 285 286 288 288 289 291 294 295 297 298 299 303 307 311 312 307 297 287 285 285 287 289 293 299 303 308 311 301 295 286 282 290 288 283 286 286 290 292 293 298 299 301 306 310 314 320 322 320 316 308 301 298 297 295 297 299 300 303 307 312 315 319 322 325 327 328 329 330 332 333
250 240 239 257 270 273 275 277 279 283 286 286 283 283 284 283 284 286 286 288 290 292 294 296 298 301 306 310 312 308 301 293 290 290 287 286 288 293 299 301 305 305 292 288 284 280 290 292 284 283 286 289 291 294 294 294 300 307 311 316 320 320 318 315 307 299 298 296 296 297 299 301 305 309 313 317 321 323 325 326 327 328 330 332 335
258 258 264 271 272 273 276 279 282 284 287 287 283 283 283 282 283 285 285 286 289 292 294 296 300 304 308 311 310 307 304 300 297 294 290 288 290 293 297 299 302 299 287 288 289 282 284 287 280 279 286 288 288 288 290 296 303 306 309 314 317 316 314 309 303 296 292 292 293 295 298 301 305 310 314 319 322 323 324 324 326 328 330 333 335
261 264 269 272 272 276 279 280 283 285 286 284 282 281 281 281 283 283 284 286 288 292 294 296 300 304 307 311 312 312 310 306 303 300 299 299 299 302 303 303 302 297 289 287 288 281 277 282 279 275 282 287 286 287 292 299 302 304 307 311 312 312 310 304 299 294 286 282 284 288 293 297 300 305 312 318 320 321 322 323 325 327 330 332 332
264 261 267 275 276 278 280 281 284 285 285 282 279 278 279 281 282 282 283 285 288 291 293 296 299 303 309 314 314 313 312 310 307 304 307 308 309 312 312 307 301 297 291 286 285 278 271 280 282 275 277 284 286 289 294 300 302 305 309 309 309 308 304 298 296 293 288 283 281 284 288 291 296 304 311 316 318 319 321 322 324 326 328 330 330
270 264 270 278 278 279 280 282 283 283 282 278 276 276 278 280 280 281 282 284 289 290 292 296 301 306 312 314 313 313 314 311 307 307 311 311 311 314 311 305 300 298 294 286 282 278 273 278 281 277 273 276 283 289 295 302 305 307 308 306 307 305 299 294 291 289 288 286 284 284 287 291 298 307 312 314 316 319 320 319 321 324 327 329 331
273 276 281 281 279 279 280 281 281 280 278 275 274 274 276 278 279 279 281 285 288 289 294 300 305 308 310 311 311 312 314 312 309 310 312 310 311 311 307 302 299 300 300 290 279 275 276 278 278 275 269 269 278 287 294 302 305 305 306 305 304 301 297 293 289 286 286 286 286 287 288 294 302 309 311 313 316 317 316 317 320 323 326 328 330
275 284 284 280 279 279 279 279 278 276 274 272 272 272 273 275 277 277 280 284 287 291 299 304 306 307 308 308 310 313 315 314 310 311 311 309 309 308 305 302 302 304 302 293 280 274 274 277 276 271 271 273 275 283 293 301 303 303 304 302 300 297 294 290 286 285 286 286 287 289 293 300 307 310 311 314 316 316 315 317 321 323 326 328 330
277 284 281 279 280 279 278 275 274 273 270 268 268 269 271 273 274 275 279 283 287 294 301 303 302 304 306 308 311 316 318 314 311 310 310 306 305 305 304 302 304 305 299 292 286 278 271 272 273 272 276 278 277 282 292 299 300 300 301 298 295 293 289 286 285 286 287 287 288 291 297 304 308 310 313 316 315 314 315 318 321 323 325 327 331
278 281 279 281 281 278 275 271 271 269 265 263 264 266 268 270 272 274 278 283 290 296 299 297 298 302 304 307 312 315 315 312 310 309 307 304 300 299 300 301 301 300 296 293 290 280 272 271 272 275 279 278 277 282 291 296 296 296 296 292 289 288 284 283 285 286 286 286 287 292 300 305 308 311 314 314 313 313 315 319 322 323 326 330 334
277 278 278 281 281 276 269 266 267 264 261 260 260 262 264 267 270 274 279 285 291 295 296 295 298 303 306 309 311 311 309 308 308 308 306 303 299 296 296 297 296 296 295 293 286 275 268 268 275 282 283 278 276 280 288 293 292 292 291 286 285 284 280 280 283 283 282 282 286 293 300 305 309 312 313 311 310 312 316 320 323 324 329 333 335
274 274 277 279 276 268 261 260 261 259 258 258 259 260 262 265 269 275 280 286 290 292 293 295 300 307 310 311 310 308 308 308 307 307 304 300 297 293 292 293 294 294 293 288 279 270 263 264 277 286 284 277 274 279 286 289 289 291 289 284 283 280 275 275 276 276 277 281 288 296 302 307 310 311 309 309 309 313 319 322 323 326 331 333 333
268 271 276 275 269 264 259 258 257 255 255 257 259 260 262 266 271 276 280 284 287 290 292 297 305 312 315 311 308 306 306 306 307 305 300 295 292 287 285 288 291 290 288 282 274 269 262 265 276 282 282 279 275 279 285 287 288 288 286 284 281 276 273 273 274 277 282 287 293 300 304 307 308 307 307 308 311 316 320 321 323 327 330 330 330
265 271 273 270 265 261 258 257 255 253 254 258 260 262 264 268 271 275 278 281 284 288 293 302 311 317 316 313 310 306 303 303 305 304 298 291 285 280 278 282 286 285 283 280 276 272 266 268 273 276 279 279 277 280 283 285 286 286 285 284 284 282 279 277 279 281 286 291 296 301 304 305 305 306 307 309 313 317 318 319 322 326 327 328 329
262 266 267 264 261 258 256 254 253 253 257 260 261 262 264 266 270 273 276 278 282 287 296 304 310 312 312 313 311 307 303 301 302 302 296 287 280 277 276 278 281 280 278 278 277 274 270 268 269 272 275 277 279 280 281 282 283 284 283 282 285 286 283 280 280 281 284 290 296 301 303 304 305 307 309 311 313 314 315 318 322 324 326 328 329
257 259 260 259 256 254 254 253 253 256 259 259 259 261 263 265 269 271 274 278 283 291 298 301 303 304 305 306 306 304 302 301 300 299 293 284 277 275 274 277 279 277 274 272 273 274 273 269 267 269 272 275 279 280 277 277 280 282 281 280 281 280 278 276 277 280 284 290 296 300 302 304 307 309 310 311 312 312 314 319 322 324 327 329 327
249 252 252 252 251 252 254 255 255 257 257 257 258 260 262 264 267 270 275 281 288 294 297 299 301 301 299 299 299 301 301 301 299 294 289 282 276 272 271 276 279 276 271 269 269 271 272 270 267 268 272 276 277 274 271 273 276 276 275 276 276 273 271 272 275 281 287 292 296 299 302 304 307 309 308 309 310 311 315 319 322 325 327 325 322
242 244 247 251 250 251 254 255 255 255 255 256 257 259 261 263 266 271 278 284 290 293 295 298 299 298 297 295 296 299 301 300 296 289 285 282 277 271 269 275 280 277 270 266 267 269 270 267 265 265 267 270 270 266 268 273 274 271 268 269 269 265 264 267 273 281 288 293 297 301 304 306 308 308 308 308 309 311 315 319 321 323 323 319 316
239 241 246 250 249 249 252 253 253 253 254 255 256 259 261 263 267 273 279 284 287 291 294 296 296 294 293 292 294 298 299 297 293 287 282 280 278 273 270 273 277 277 272 267 266 268 268 266 262 256 254 260 262 265 271 273 273 271 267 264 261 258 260 266 273 281 288 294 299 302 305 307 309 309 309 308 309 311 315 317 318 319 317 312 311
Height
5899 5899 5899 5898 5899 5899 5899 5900 5899 5899 5899 5899 5899 5899 5899 5898 5897 5896 5894 5893 5892 5890 5889 5887 5886 5884 5883 5881 5880 5879 5878 5877 5877 5876 5875 5874 5873 5872 5871 5870 5870 5869 5869 5868 5868 5868 5868 5867 5866 5865 5864 5864 5863 5863 5862 5861 5861 5860 5859 5858 5857 5856 5856 5855 5854 5854 5853 5852 5852 5851 5851 5850 5850 5850 5849 5849 5849 5849 5848 5848 5848 5847 5847 5847 5846
5898 5898 5898 5898 5898 5899 5899 5900 5900 5899 5899 5899 5899 5899 5898 5898 5897 5896 5895 5893 5892 5890 5889 5887 5886 5884 5882 5881 5880 5879 5878 5878 5877 5876 5875 5874 5873 5873 5872 5871 5870 5869 5869 5868 5868 5868 5868 5867 5866 5866 5865 5864 5863 5863 5862 5862 5861 5860 5860 5859 5858 5857 5856 5855 5855 5854 5853 5852 5852 5851 5851 5850 5850 5850 5849 5849 5849 5849 5848 5848 5848 5848 5847 5847 5846
5897 5898 5898 5898 5898 5899 5899 5900 5900 5899 5899 5899 5899 5899 5898 5898 5897 5896 5895 5894 5892 5891 5889 5888 5886 5884 5883 5881 5880 5880 5879 5878 5877 5877 5876 5875 5874 5873 5873 5872 5871 5870 5869 5868 5868 5868 5868 5867 5867 5866 5865 5864 5864 5863 5862 5862 5861 5861 5860 5859 5859 5858 5857 5856 5855 5854 5853 5853 5852 5852 5851 5851 5850 5850 5850 5849 5849 5849 5849 5848 5848 5848 5847 5847 5846
5897 5897 5898 5898 5898 5899 5899 5899 5899 5899 5899 5899 5899 5899 5898 5898 5897 5896 5895 5894 5892 5891 5889 5888 5886 5884 5882 5881 5881 5880 5879 5878 5878 5877 5876 5875 5874 5874 5873 5872 5871 5870 5869 5868 5868 5868 5868 5867 5867 5866 5865 5864 5864 5863 5863 5862 5861 5861 5860 5860 5859 5858 5857 5856 5856 5855 5854 5853 5853 5852 5852 5851 5851 5850 5850 5850 5849 5849 5849 5848 5848 5848 5847 5847 5846
5897 5897 5898 5898 5898 5899 5899 5899 5899 5899 5899 5899 5899 5899 5898 5898 5897 5896 5895 5894 5893 5891 5889 5888 5886 5884 5882 5881 5881 5880 5879 5879 5878 5877 5876 5876 5875 5874 5874 5873 5872 5871 5870 5869 5868 5868 5867 5867 5867 5866 5865 5864 5863 5863 5862 5862 5861 5861 5861 5860 5859 5859 5857 5857 5856 5855 5854 5854 5853 5853 5852 5852 5851 5850 5850 5850 5850 5849 5849 5848 5848 5847 5847 5846 5846
5897 5897 5897 5898 5898 5899 5899 5899 5899 5899 5899 5899 5899 5899 5898 5898 5897 5896 5895 5894 5893 5891 5889 5887 5886 5884 5883 5882 5881 5880 5879 5879 5878 5877 5877 5876 5875 5875 5874 5873 5872 5871 5870 5869 5868 5868 5867 5867 5867 5866 5865 5864 5863 5862 5862 5861 5861 5861 5860 5860 5859 5858 5857 5857 5856 5855 5855 5854 5853 5853 5852 5852 5851 5850 5850 5850 5850 5849 5849 5848 5848 5847 5847 5846 5846
5897 5898 5898 5898 5898 5899 5899 5899 5899 5899 5899 5899 5899 5899 5899 5898 5897 5896 5895 5894 5892 5891 5889 5887 5885 5884 5883 5882 5881 5880 5879 5879 5878 5877 5877 5876 5875 5875 5874 5874 5873 5872 5871 5869 5868 5868 5867 5867 5866 5866 5865 5864 5863 5862 5862 5861 5861 5860 5860 5860 5859 5858 5857 5857 5857 5856 5855 5855 5854 5853 5853 5852 5851 5851 5850 5850 5850 5849 5848 5848 5847 5847 5846 5846 5846
5897 5897 5898 5898 5898 5898 5899 5899 5899 5899 5899 5899 5900 5899 5899 5898 5897 5896 5895 5894 5892 5891 5889 5887 5885 5884 5883 5882 5881 5880 5879 5879 5878 5877 5877 5876 5875 5875 5874 5874 5873 5872 5871 5870 5869 5868 5867 5867 5866 5865 5865 5864 5863 5862 5861 5861 5860 5860 5859 5859 5859 5858 5857 5856 5857 5856 5855 5855 5854 5853 5852 5852 5851 5851 5850 5850 5850 5849 5848 5848 5847 5847 5846 5846 5845
5896 5897 5897 5898 5898 5898 5899 5899 5899 5899 5899 5899 5899 5899 5899 5898 5897 5895 5894 5893 5892 5891 5889 5887 5885 5884 5883 5882 5881 5880 5879 5878 5878 5877 5876 5876 5875 5875 5874 5874 5873 5872 5871 5870 5869 5868 5867 5867 5866 5865 5865 5864 5863 5862 5861 5861 5860 5860 5859 5859 5859 5858 5857 5856 5856 5856 5855 5854 5854 5853 5852 5851 5851 5851 5851 5851 5850 5849 5848 5848 5847 5847 5846 5846 5845
5895 5896 5897 5898 5898 5899 5899 5899 5899 5899 5899 5899 5899 5899 5899 5898 5896 5895 5894 5893 5892 5891 5889 5887 5885 5884 5883 5882 5881 5880 5879 5878 5877 5877 5876 5876 5875 5875 5874 5874 5873 5872 5871 5870 5869 5868 5867 5867 5866 5865 5865 5864 5863 5862 5861 5861 5860 5860 5859 5859 5859 5859 5858 5857 5857 5856 5855 5855 5854 5853 5853 5852 5852 5852 5852 5851 5850 5849 5849 5848 5848 5847 5846 5846 5845
5895 5896 5897 5898 5898 5898 5898 5898 5899 5899 5899 5899 5899 5899 5898 5897 5896 5895 5894 5893 5892 5890 5889 5887 5885 5884 5883 5882 5881 5880 5879 5878 5877 5877 5876 5876 5875 5875 5874 5874 5873 5872 5871 5870 5869 5868 5867 5867 5866 5865 5864 5864 5863 5862 5862 5861 5861 5860 5860 5859 5859 5859 5859 5858 5858 5857 5856 5855 5855 5854 5853 5854 5853 5853 5852 5851 5851 5850 5849 5849 5848 5848 5847 5846 5845
5894 5895 5896 5897 5898 5898 5898 5898 5898 5899 5899 5899 5899 5898 5898 5897 5896 5895 5894 5893 5891 5890 5889 5887 5885 5884 5883 5882 5881 5880 5879 5878 5878 5877 5876 5876 5875 5874 5874 5873 5873 5872 5871 5870 5869 5868 5867 5867 5866 5866 5865 5864 5863 5862 5862 5862 5861 5861 5860 5860 5859 5859 5859 5859 5858 5858 5857 5856 5856 5855 5854 5855 5854 5853 5853 5852 5851 5850 5850 5849 5848 5848 5847 5846 5845
5894 5894 5896 5896 5897 5897 5898 5898 5898 5899 5899 5899 5898 5898 5897 5896 5896 5895 5894 5893 5891 5889 5888 5887 5885 5884 5882 5881 5881 5880 5879 5878 5878 5877 5876 5876 5875 5874 5874 5873 5873 5872 5871 5870 5869 5868 5867 5867 5866 5866 5865 5864 5863 5863 5862 5862 5862 5861 5861 5860 5860 5859 5859 5858 5858 5858 5858 5857 5856 5856 5855 5855 5854 5854 5853 5852 5851 5850 5850 5849 5848 5848 5847 5846 5845
5894 5894 5895 5895 5896 5896 5897 5897 5897 5898 5898 5898 5898 5897 5896 5895 5895 5894 5894 5892 5890 5889 5887 5886 5885 5884 5882 5881 5880 5879 5879 5878 5878 5877 5876 5875 5875 5874 5873 5873 5872 5872 5871 5870 5869 5868 5867 5866 5866 5865 5865 5864 5863 5863 5862 5862 5862 5861 5861 5861 5860 5860 5859 5858 5858 5858 5858 5857 5857 5856 5855 5855 5854 5853 5853 5852 5851 5851 5850 5849 5848 5848 5847 5846 5845
5893 5893 5893 5894 5895 5896 5896 5896 5897 5897 5897 5897 5897 5896 5895 5895 5894 5894 5893 5892 5890 5888 5887 5886 5884 5883 5882 5881 5880 5879 5878 5878 5877 5876 5876 5875 5874 5874 5873 5873 5872 5872 5871 5870 5869 5868 5867 5866 5866 5865 5864 5864 5863 5863 5862 5862 5862 5862 5861 5861 5860 5860 5859 5858 5858 5858 5858 5857 5857 5856 5855 5855 5854 5853 5853 5852 5852 5851 5850 5849 5848 5847 5846 5845 5845
5890 5891 5892 5893 5893 5894 5895 5896 5896 5896 5896 5896 5895 5895 5894 5894 5893 5893 5892 5891 5889 5887 5886 5885 5884 5883 5882 5880 5879 5879 5878 5877 5877 5876 5875 5874 5874 5873 5873 5872 5872 5871 5870 5869 5868 5867 5867 5866 5866 5865 5864 5864 5863 5863 5862 5862 5862 5862 5861 5861 5860 5860 5859 5858 5858 5858 5858 5857 5857 5856 5856 5855 5854 5853 5853 5852 5851 5850 5849 5849 5848 5847 5846 5845 5844
5888 5889 5890 5891 5892 5893 5894 5894 5895 5895 5894 5894 5894 5894 5893 5893 5892 5891 5891 5890 5888 5887 5886 5884 5883 5882 5881 5880 5879 5878 5877 5877 5876 5875 5874 5874 5873 5872 5872 5872 5871 5871 5870 5869 5868 5867 5867 5866 5866 5865 5865 5864 5864 5863 5863 5862 5862 5861 5861 5861 5860 5859 5859 5858 5857 5857 5857 5857 5857 5856 5855 5855 5854 5853 5852 5852 5851 5850 5849 5848 5847 5846 5845 5844 5843
5886 5887 5889 5890 5891 5892 5892 5893 5893 5893 5893 5893 5893 5892 5892 5891 5891 5890 5890 5889 5888 5886 5885 5883 5882 5881 5880 5879 5878 5877 5876 5876 5875 5874 5874 5873 5872 5872 5871 5871 5870 5870 5869 5869 5868 5867 5867 5866 5866 5865 5865 5864 5864 5863 5863 5862 5862 5861 5861 5860 5860 5859 5858 5857 5857 5856 5856 5856 5856 5855 5855 5854 5853 5853 5852 5851 5851 5850 5849 5848 5847 5846 5845 5844 5843
5884 5885 5887 5888 5889 5890 5891 5891 5892 5892 5891 5891 5891 5891 5891 5890 5889 5889 5888 5888 5887 5885 5884 5883 5881 5880 5879 5878 5877 5876 5875 5875 5874 5873 5873 5872 5872 5871 5871 5870 5870 5869 5869 5868 5868 5867 5867 5866 5866 5865 5865 5864 5864 5863 5863 5862 5862 5861 5861 5860 5859 5858 5858 5857 5856 5855 5855 5855 5855 5855 5854 5853 5853 5852 5851 5851 5850 5849 5848 5847 5846 5845 5844 5843 5842
5883 5883 5885 5886 5888 5889 5889 5890 5890 5890 5890 5890 5890 5890 5889 5889 5888 5888 5887 5886 5886 5884 5883 5882 5881 5879 5878 5877 5876 5875 5874 5874 5873 5872 5872 5872 5871 5871 5870 5869 5869 5868 5868 5868 5867 5867 5867 5866 5866 5865 5865 5864 5864 5863 5863 5862 5862 5862 5861 5861 5860 5859 5858 5856 5855 5855 5854 5854 5854 5854 5853 5852 5852 5851 5851 5850 5850 5849 5848 5847 5846 5845 5844 5842 5841
5883 5883 5884 5885 5886 5887 5888 5888 5888 5888 5888 5888 5889 5889 5888 5887 5887 5886 5886 5885 5884 5883 5882 5881 5880 5879 5877 5876 5875 5874 5873 5873 5872 5871 5871 5871 5870 5870 5869 5868 5868 5867 5867 5867 5866 5866 5866 5866 5865 5865 5864 5864 5863 5863 5862 5862 5862 5861 5861 5860 5859 5859 5858 5857 5855 5854 5853 5853 5853 5852 5852 5852 5851 5851 5850 5849 5849 5848 5847 5846 5845 5844 5843 5842 5840
5882 5883 5883 5883 5884 5885 5886 5886 5887 5887 5887 5887 5887 5887 5887 5886 5886 5885 5884 5884 5883 5881 5880 5880 5879 5878 5876 5875 5874 5873 5872 5871 5871 5870 5870 5869 5869 5868 5868 5867 5867 5866 5865 5865 5865 5865 5865 5865 5864 5864 5863 5863 5863 5862 5862 5862 5861 5861 5860 5860 5859 5858 5858 5857 5855 5854 5853 5852 5852 5851 5851 5851 5850 5850 5849 5849 5848 5848 5847 5846 5844 5843 5842 5841 5840
5881 5882 5882 5882 5882 5883 5884 5885 5885 5885 5885 5885 5886 5886 5885 5885 5884 5884 5883 5882 5881 5880 5879 5878 5878 5877 5875 5874 5872 5871 5871 5870 5870 5869 5868 5868 5868 5867 5866 5866 5865 5864 5864 5864 5864 5864 5864 5863 5863 5862 5862 5862 5862 5862 5861 5861 5861 5860 5859 5859 5858 5857 5857 5856 5855 5854 5853 5852 5851 5851 5851 5850 5850 5849 5849 5848 5847 5847 5846 5845 5844 5843 5841 5840 5839
5879 5880 5880 5880 5881 5882 5882 5883 5883 5883 5883 5884 5884 5884 5884 5884 5883 5882 5882 5880 5879 5878 5877 5877 5876 5876 5874 5873 5871 5870 5869 5869 5869 5868 5867 5867 5866 5866 5865 5864 5864 5863 5862 5862 5862 5862 5862 5862 5861 5861 5861 5861 5861 5861 5861 5860 5859 5859 5858 5857 5857 5856 5855 5855 5854 5853 5852 5851 5851 5850 5850 5849 5849 5848 5848 5847 5846 5846 5845 5844 5843 5842 5840 5839 5838
5877 5878 5878 5879 5879 5880 5881 5881 5881 5881 5882 5882 5883 5883 5883 5882 5882 5881 5880 5879 5878 5877 5876 5875 5875 5874 5873 5871 5870 5869 5868 5868 5868 5867 5866 5866 5865 5865 5864 5863 5863 5862 5861 5861 5861 5861 5861 5861 5860 5860 5860 5860 5860 5860 5860 5860 5859 5858 5856 5856 5856 5855 5854 5854 5853 5852 5851 5850 5850 5850 5849 5848 5848 5847 5847 5846 5845 5845 5844 5843 5842 5840 5839 5838 5836
5875 5875 5876 5876 5877 5878 5878 5878 5879 5879 5880 5881 5881 5881 5881 5881 5880 5879 5878 5877 5876 5875 5874 5874 5873 5873 5872 5870 5869 5868 5868 5867 5867 5866 5865 5865 5864 5864 5863 5862 5862 5861 5861 5860 5860 5860 5859 5859 5859 5859 5859 5859 5859 5859 5859 5859 5857 5856 5856 5855 5854 5854 5853 5852 5852 5851 5850 5850 5849 5848 5848 5847 5847 5846 5846 5845 5844 5843 5843 5841 5840 5839 5838 5836 5835
5872 5873 5874 5874 5875 5875 5875 5876 5877 5877 5878 5879 5880 5879 5879 5879 5878 5878 5876 5875 5874 5872 5872 5872 5872 5871 5870 5869 5868 5867 5867 5866 5866 5865 5864 5864 5863 5862 5862 5861 5861 5861 5861 5860 5860 5859 5858 5858 5858 5858 5858 5858 5858 5858 5858 5857 5856 5855 5855 5854 5853 5852 5852 5851 5850 5849 5849 5848 5848 5847 5846 5846 5846 5845 5844 5844 5843 5842 5841 5840 5839 5837 5836 5835 5833
5870 5870 5872 5873 5873 5873 5873 5873 5875 5876 5877 5878 5878 5877 5877 5877 5876 5876 5875 5873 5872 5870 5870 5870 5870 5869 5868 5867 5867 5866 5866 5865 5865 5864 5863 5863 5862 5861 5860 5860 5860 5860 5859 5859 5859 5859 5858 5857 5856 5856 5857 5857 5858 5857 5857 5856 5854 5853 5853 5853 5852 5851 5850 5850 5849 5848 5848 5847 5846 5846 5845 5845 5845 5844 5843 5842 5842 5841 5840 5839 5838 5836 5835 5833 5831
5867 5868 5869 5871 5871 5871 5871 5871 5873 5874 5875 5876 5876 5875 5875 5875 5874 5873 5873 5872 5869 5868 5868 5868 5867 5867 5867 5866 5865 5865 5864 5863 5863 5862 5862 5861 5861 5860 5859 5858 5858 5857 5856 5857 5857 5857 5857 5856 5855 5855 5855 5856 5857 5856 5856 5855 5854 5853 5853 5852 5851 5850 5849 5849 5848 5847 5846 5846 5845 5844 5844 5844 5843 5843 5842 5841 5840 5840 5839 5838 5836 5835 5834 5832 5830
5864 5865 5867 5869 5869 5869 5869 5870 5871 5872 5873 5873 5873 5873 5873 5873 5872 5871 5871 5869 5867 5866 5866 5866 5865 5865 5865 5865 5864 5863 5862 5862 5861 5861 5861 5860 5859 5858 5858 5857 5857 5856 5854 5854 5853 5853 5855 5855 5855 5854 5854 5855 5856 5856 5855 5854 5853 5852 5852 5851 5850 5849 5848 5847 5846 5846 5845 5844 5843 5843 5843 5842 5842 5842 5841 5840 5839 5838 5838 5836 5835 5833 5832 5830 5828
5862 5863 5865 5866 5867 5868 5868 5868 5869 5870 5870 5871 5871 5870 5870 5870 5870 5869 5868 5867 5865 5865 5865 5863 5863 5862 5862 5862 5862 5862 5861 5861 5860 5860 5859 5858 5857 5857 5857 5856 5855 5854 5853 5853 5852 5851 5851 5852 5853 5852 5852 5853 5854 5854 5853 5852 5851 5850 5850 5849 5848 5848 5847 5846 5845 5844 5843 5843 5842 5842 5842 5841 5841 5840 5840 5839 5838 5837 5836 5834 5833 5831 5829 5828 5826
5860 5861 5862 5864 5865 5866 5866 5867 5867 5868 5868 5869 5869 5868 5868 5868 5867 5867 5866 5865 5864 5863 5863 5862 5861 5860 5860 5860 5860 5860 5860 5859 5858 5857 5857 5856 5856 5855 5854 5854 5854 5853 5852 5852 5853 5851 5850 5850 5851 5850 5850 5852 5853 5853 5852 5851 5850 5848 5848 5847 5847 5846 5845 5845 5844 5843 5842 5842 5841 5841 5840 5840 5839 5839 5839 5838 5837 5835 5834 5833 5831 5829 5828 5826 5824
5857 5859 5860 5861 5862 5863 5864 5865 5866 5866 5866 5867 5866 5865 5865 5865 5864 5864 5863 5862 5862 5861 5860 5860 5859 5858 5858 5858 5858 5858 5857 5856 5855 5855 5855 5854 5854 5852 5852 5852 5852 5851 5851 5851 5852 5852 5851 5850 5849 5849 5849 5850 5851 5851 5850 5849 5848 5847 5846 5846 5845 5844 5844 5844 5843 5842 5841 5841 5840 5839 5839 5839 5838 5837 5837 5836 5835 5834 5832 5831 5829 5827 5826 5824 5823
5854 5856 5858 5859 5859 5860 5861 5862 5864 5864 5864 5864 5863 5862 5862 5861 5861 5862 5861 5860 5860 5859 5858 5857 5857 5857 5857 5856 5856 5855 5854 5853 5853 5853 5853 5853 5852 5851 5850 5850 5850 5850 5849 5849 5849 5849 5849 5849 5848 5848 5848 5849 5849 5848 5848 5847 5847 5846 5845 5844 5843 5843 5842 5842 5842 5841 5840 5839 5839 5838 5838 5837 5836 5836 5835 5834 5833 5832 5830 5829 5827 5825 5824 5822 5821
5851 5853 5855 5856 5856 5857 5858 5859 5861 5861 5861 5860 5860 5859 5859 5859 5859 5859 5858 5858 5858 5857 5856 5856 5855 5855 5854 5854 5854 5853 5852 5851 5851 5851 5851 5851 5851 5850 5850 5849 5849 5849 5848 5847 5847 5846 5846 5847 5847 5847 5848 5848 5847 5846 5845 5845 5845 5844 5844 5843 5842 5841 5841 5841 5840 5840 5839 5838 5838 5837 5837 5836 5835 5834 5833 5832 5831 5830 5828 5826 5825 5824 5822 5821 5819
5848 5850 5851 5852 5853 5854 5855 5856 5858 5858 5858 5857 5856 5856 5856 5856 5856 5856 5856 5856 5856 5856 5855 5854 5853 5853 5852 5852 5852 5851 5851 5850 5849 5849 5849 5849 5849 5849 5849 5848 5847 5847 5846 5846 5845 5845 5845 5845 5845 5845 5845 5846 5845 5844 5844 5843 5843 5843 5842 5841 5841 5840 5840 5839 5839 5839 5839 5838 5837 5836 5835 5835 5834 5833 5832 5831 5829 5827 5826 5824 5823 5822 5821 5819 5818
5845 5847 5848 5849 5850 5851 5852 5853 5854 5855 5855 5853 5853 5853 5853 5853 5854 5853 5853 5853 5854 5854 5853 5852 5851 5851 5851 5851 5850 5849 5849 5848 5848 5847 5847 5846 5846 5846 5846 5846 5845 5844 5844 5844 5843 5843 5843 5843 5843 5843 5843 5843 5842 5842 5842 5842 5841 5841 5840 5839 5839 5839 5838 5838 5837 5837 5837 5837 5837 5836 5835 5834 5833 5832 5830 5829 5827 5825 5824 5822 5821 5820 5819 5818 5816
5841 5844 5845 5846 5846 5848 5849 5849 5850 5851 5851 5850 5849 5849 5850 5851 5851 5851 5850 5851 5852 5852 5851 5850 5850 5849 5849 5849 5848 5847 5847 5846 5845 5845 5845 5844 5844 5844 5844 5843 5843 5842 5842 5842 5841 5841 5841 5841 5841 5840 5841 5841 5841 5840 5840 5840 5839 5839 5838 5837 5837 5837 5837 5837 5836 5835 5835 5835 5835 5834 5833 5832 5831 5830 5829 5827 5826 5824 5822 5821 5820 5819 5817 5816 5814
5838 5841 5842 5842 5843 5845 5846 5846 5847 5848 5847 5846 5846 5846 5847 5848 5848 5847 5847 5848 5849 5848 5848 5848 5848 5848 5847 5847 5846 5845 5845 5844 5843 5843 5843 5842 5842 5842 5842 5841 5841 5840 5840 5839 5839 5839 5839 5839 5839 5838 5840 5840 5839 5838 5837 5837 5837 5837 5837 5836 5835 5835 5835 5835 5834 5834 5833 5833 5833 5832 5831 5831 5830 5829 5827 5825 5824 5823 5821 5820 5819 5817 5816 5814 5813
5835 5839 5839 5839 5840 5842 5843 5843 5843 5844 5844 5843 5843 5843 5844 5845 5844 5844 5844 5845 5846 5846 5846 5846 5846 5845 5845 5844 5844 5843 5843 5842 5841 5841 5841 5840 5840 5840 5840 5839 5839 5839 5838 5838 5837 5837 5837 5837 5837 5837 5838 5838 5837 5836 5835 5835 5835 5835 5835 5835 5834 5834 5833 5833 5832 5832 5831 5831 5830 5830 5829 5828 5827 5826 5825 5823 5822 5821 5820 5818 5817 5816 5814 5813 5811
5833 5836 5836 5836 5837 5838 5839 5839 5839 5841 5840 5839 5840 5841 5841 5841 5841 5841 5842 5843 5843 5844 5844 5844 5844 5843 5843 5842 5842 5841 5841 5840 5840 5839 5839 5839 5838 5838 5838 5838 5837 5837 5836 5836 5836 5836 5835 5835 5835 5835 5836 5836 5835 5834 5834 5833 5834 5834 5834 5833 5833 5832 5832 5831 5830 5830 5829 5829 5828 5828 5827 5826 5825 5824 5822 5821 5820 5819 5818 5817 5816 5814 5813 5811 5809
5831 5833 5833 5834 5834 5835 5836 5835 5836 5837 5836 5836 5837 5838 5838 5838 5838 5838 5839 5841 5841 5842 5842 5842 5841 5841 5840 5840 5839 5839 5838 5838 5837 5837 5837 5837 5836 5836 5836 5836 5835 5835 5834 5834 5834 5834 5833 5833 5833 5833 5834 5834 5833 5832 5832 5832 5832 5832 5832 5832 5831 5831 5830 5829 5828 5828 5827 5827 5827 5826 5825 5824 5823 5821 5820 5819 5818 5817 5816 5815 5814 5813 5811 5809 5807
5828 5829 5831 5831 5832 5832 5832 5832 5832 5833 5833 5833 5835 5835 5835 5836 5836 5836 5838 5839 5839 5839 5839 5839 5839 5838 5838 5838 5837 5837 5836 5836 5835 5835 5835 5834 5834 5834 5834 5834 5833 5832 5832 5832 5832 5831 5831 5831 5831 5831 5832 5832 5831 5830 5830 5830 5830 5830 5831 5830 5830 5829 5828 5827 5827 5826 5826 5825 5825 5824 5823 5822 5821 5820 5818 5817 5816 5815 5814 5813 5812 5810 5809 5807 5805
5824 5826 5828 5829 5829 5829 5829 5829 5829 5830 5830 5831 5832 5832 5833 5833 5833 5834 5836 5837 5837 5837 5837 5836 5836 5836 5836 5836 5835 5835 5834 5834 5833 5833 5832 5832 5832 5832 5832 5831 5831 5830 5830 5829 5829 5829 5829 5829 5829 5829 5830 5830 5830 5829 5829 5829 5828 5828 5828 5828 5828 5828 5827 5826 5825 5825 5824 5824 5823 5823 5821 5820 5819 5818 5817 5816 5814 5813 5812 5811 5810 5808 5806 5804 5803
5820 5822 5825 5826 5826 5825 5825 5826 5826 5827 5827 5828 5830 5830 5831 5831 5831 5833 5834 5834 5834 5834 5834 5834 5834 5834 5834 5834 5833 5832 5832 5831 5831 5830 5830 5829 5829 5829 5829 5828 5828 5828 5828 5827 5827 5827 5828 5828 5828 5828 5828 5827 5828 5827 5827 5826 5827 5826 5826 5826 5826 5826 5825 5824 5823 5823 5823 5822 5821 5821 5820 5818 5817 5816 5815 5814 5812 5811 5810 5809 5807 5806 5804 5802 5800
5817 5819 5822 5823 5823 5822 5822 5823 5824 5824 5825 5826 5827 5828 5828 5828 5829 5831 5832 5832 5832 5832 5832 5832 5832 5832 5832 5831 5831 5830 5829 5829 5828 5827 5827 5827 5827 5826 5826 5826 5826 5826 5826 5825 5825 5826 5827 5826 5826 5826 5826 5825 5825 5825 5825 5824 5824 5825 5824 5823 5823 5823 5823 5822 5822 5821 5821 5820 5820 5819 5818 5817 5815 5814 5813 5812 5810 5809 5808 5807 5805 5803 5802 5800 5798
5814 5816 5818 5819 5820 5819 5819 5820 5821 5822 5823 5824 5825 5825 5825 5826 5827 5828 5829 5829 5829 5830 5830 5830 5830 5830 5829 5829 5828 5828 5827 5826 5825 5825 5824 5824 5824 5824 5824 5824 5824 5824 5824 5823 5824 5824 5825 5824 5824 5824 5824 5823 5823 5823 5823 5822 5822 5823 5822 5821 5821 5821 5820 5820 5820 5820 5820 5819 5818 5817 5816 5815 5813 5812 5811 5810 5808 5807 5806 5805 5803 5801 5799 5797 5795
5811 5813 5815 5816 5816 5815 5816 5818 5819 5820 5821 5822 5822 5822 5823 5824 5825 5826 5827 5827 5827 5828 5827 5827 5828 5827 5827 5826 5826 5825 5824 5823 5822 5822 5821 5821 5821 5821 5821 5821 5821 5821 5821 5821 5821 5822 5822 5822 5822 5822 5822 5821 5821 5821 5821 5821 5821 5821 5820 5819 5819 5819 5818 5818 5818 5818 5818 5818 5817 5816 5814 5813 5811 5810 5808 5807 5806 5805 5804 5802 5800 5798 5796 5794 5792
5807 5810 5812 5813 5813 5813 5815 5816 5817 5818 5819 5819 5819 5820 5821 5822 5823 5824 5825 5825 5825 5825 5825 5825 5825 5825 5824 5824 5823 5823 5822 5820 5820 5819 5818 5818 5818 5818 5819 5819 5819 5819 5819 5819 5819 5819 5820 5820 5819 5819 5819 5819 5819 5819 5819 5820 5820 5819 5819 5818 5818 5817 5817 5817 5816 5816 5816 5816 5815 5814 5812 5811 5810 5809 5807 5805 5804 5803 5802 5800 5798 5796 5793 5791 5790
5804 5807 5809 5810 5810 5811 5813 5814 5815 5816 5816 5817 5817 5818 5819 5821 5821 5822 5823 5823 5823 5823 5823 5823 5822 5822 5822 5821 5821 5820 5819 5818 5817 5816 5816 5815 5815 5816 5816 5816 5816 5816 5816 5816 5816 5817 5817 5817 5817 5816 5817 5817 5817 5817 5817 5818 5818 5818 5817 5817 5816 5816 5816 5816 5815 5815 5814 5814 5813 5812 5810 5809 5808 5807 5806 5804 5802 5801 5799 5797 5795 5793 5791 5789 5787
5801 5804 5806 5807 5808 5809 5811 5811 5812 5813 5814 5814 5815 5816 5817 5819 5819 5820 5821 5821 5821 5821 5821 5820 5820 5819 5819 5819 5818 5818 5816 5815 5814 5814 5813 5813 5812 5813 5813 5813 5813 5813 5813 5813 5814 5814 5815 5815 5814 5814 5815 5815 5815 5815 5815 5815 5816 5816 5816 5815 5815 5815 5815 5814 5814 5813 5813 5812 5811 5809 5808 5806 5805 5804 5803 5801 5800 5798 5796 5794 5792 5790 5788 5787 5785